Hourly Data Report for October 26, 2014

All times are specified in Local Standard Time (LST). Add 1 hour to adjust for Daylight Saving Time where and when it is observed.

PENTICTON A
BRITISH COLUMBIA

49°27'45.000" N
119°36'08.000" W
344.40 m
1126146
71889
YYF

Download Data

Hourly Data (October 2014)
Hourly Data Report for October 26, 2014
Temp Definition
°C
Dew Point Temp Definition
°C
Rel Hum Definition
%
Wind Dir Definition
10's deg

Wind Spd Definition
km/h
Visibility Definition
km
Stn Press Definition
kPa
Hmdx Definition


Wind Chill Definition


Weather Definition


TIME
00:00 Legend Double Dagger 12.3 9.2 81 20 30 19.3 95.70     Rain Showers
01:00 Legend Double Dagger 12.4 8.7 78 18 19 16.1 95.88     Cloudy
02:00 Legend Double Dagger 12.9 6.1 63 18 16 16.1 96.04     LegendNANA
03:00 Legend Double Dagger 12.7 -0.8 39 30 3 24.1 96.16     LegendNANA
04:00 Legend Double Dagger 12.2 0.7 45 19 19 24.1 96.30     Cloudy
05:00 Legend Double Dagger 11.6 -1.5 40 25 11 24.1 96.41     LegendNANA
06:00 Legend Double Dagger 10.7 -1.7 42 21 11 24.1 96.50     LegendNANA
07:00 Legend Double Dagger 10.9 0.7 49 21 9 24.1 96.63     Mostly Cloudy
08:00 Legend Double Dagger 11.7 3.0 55 17 14 24.1 96.76     LegendNANA
09:00 Legend Double Dagger 12.4 2.9 52 18 20 24.1 96.87     LegendNANA
10:00 Legend Double Dagger 12.0 2.8 53 16 16 24.1 96.96     Mostly Cloudy
11:00 Legend Double Dagger 11.8 2.9 54 18 13 24.1 97.01     LegendNANA
12:00 Legend Double Dagger 12.4 2.9 52 20 8 24.1 97.08     LegendNANA
13:00 Legend Double Dagger 12.9 2.5 49 14 10 24.1 97.12     Mostly Cloudy
14:00 Legend Double Dagger 11.7 4.0 59 16 21 24.1 97.16     LegendNANA
15:00 Legend Double Dagger 10.9 4.6 65 17 18 24.1 97.20     LegendNANA
16:00 Legend Double Dagger 10.4 3.7 63 18 19 24.1 97.25     Mostly Cloudy
17:00 Legend Double Dagger 9.4 3.2 65 22 11 24.1 97.32     LegendNANA
18:00 Legend Double Dagger 8.8 3.7 70 36 1 24.1 97.44     LegendNANA
19:00 Legend Double Dagger 6.5 3.1 79 33 9 24.1 97.51     Mostly Cloudy
20:00 Legend Double Dagger 7.6 1.7 66 1 10 24.1 97.54     LegendNANA
21:00 Legend Double Dagger 7.3 1.8 68 36 8 24.1 97.63     LegendNANA
22:00 Legend Double Dagger 6.4 1.9 73 35 8 24.1 97.68     Cloudy
23:00 Legend Double Dagger 6.5 2.4 75 36 1 24.1 97.76     LegendNANA

Notes on Data Quality.

Legend

  • E = Estimated
  • M = Missing
  • NA = Not Available
  • ‡ = Partner data that is not subject to review by the National Climate Archives
Date modified: